Regional Weather Roundup
Issued by NWS

Home | Current Version | Previous Version | Graphics & Text | Print | Product List | Glossary On
Versions: 1 2 3 4 5 6 7 8 9 10 11 12 13 14 15 16 17 18 19 20 21 22 23 24 25 26 27
000
ASUS45 KCYS 201210
RWRWY

WYOMING REGIONAL WEATHER ROUNDUP
NATIONAL WEATHER SERVICE CHEYENNE WY
600 AM MDT WED SEP 20 2017

NOTE:  "FAIR" INDICATES FEW OR NO CLOUDS BELOW 12,000 FEET
WITH NO SIGNIFICANT WEATHER AND/OR OBSTRUCTIONS TO VISIBILITY.

WYZ001-201300-
YELLOWSTONE NATIONAL PARK

CITY           SKY/WX    TMP DP  RH WIND       PRES   REMARKS
LK YELLOWSTONE   N/A     29  26  89 VRB7G18   29.88  WCI  22
6HR MIN TEMP:  28; 6HR MAX TEMP:  30;

W YELLOWSTONE  NOT AVBL

$$
WYZ002>013-054>058-071-098>099-201300-
NORTHERN WYOMING

CITY           SKY/WX    TMP DP  RH WIND       PRES   REMARKS
JACKSON        CLOUDY    38  27  64 S9        29.91S WCI  31
CODY           FAIR      38  27  64 S5        29.80F WCI  34
GREYBULL       FAIR      38  36  92 CALM      29.81R
6HR MIN TEMP:  37; 6HR MAX TEMP:  47;

WORLAND        FAIR      33  33 100 CALM      29.81R
6HR MIN TEMP:  33; 6HR MAX TEMP:  39;

SHERIDAN       FAIR      40  27  59 S5        29.75R
6HR MIN TEMP:  36; 6HR MAX TEMP:  51;

BUFFALO        FAIR      40  27  59 S7        29.78S
6HR MIN TEMP:  36; 6HR MAX TEMP:  44;

GILLETTE       FAIR      42  29  59 SW23G31   29.77S
6HR MIN TEMP:  37; 6HR MAX TEMP:  42;

HULETT         FAIR      41  34  75 SW8       29.80R
NEWCASTLE      FAIR      36  32  87 S9        29.85R WCI  29

$$
WYZ014>020-022>026-101>103-201300-
CENTRAL WYOMING

CITY           SKY/WX    TMP DP  RH WIND       PRES   REMARKS
BIG PINEY      FAIR      29  24  82 CALM      29.98R
6HR MIN TEMP:  26; 6HR MAX TEMP:  35;

PINEDALE       FAIR      27  25  93 SE3       30.00R
DUBOIS         CLOUDY    34  23  64 NW10G17   29.88R WCI  26
LANDER           N/A    N/A N/A N/A MISG      29.87F
RIVERTON       FAIR      37  24  59 S8        29.88S WCI  31
6HR MIN TEMP:  36; 6HR MAX TEMP:  41;

CASPER         FAIR      38  26  62 SW12      29.91S WCI  30
6HR MIN TEMP:  36; 6HR MAX TEMP:  41;

DOUGLAS        FAIR      44  22  41 W15       29.89S
6HR MIN TEMP:  40; 6HR MAX TEMP:  45;


$$
WYZ021-027>030-104>119-201300-
SOUTHERN WYOMING

CITY           SKY/WX    TMP DP  RH WIND       PRES   REMARKS
EVANSTON       FAIR      33  29  85 S8        29.99F WCI  26
6HR MIN TEMP:  31; 6HR MAX TEMP:  38;

KEMMERER         N/A     32  28  86 CALM      29.98F
FORT BRIDGER   FAIR      34  28  78 SW9       30.02S WCI  26
ROCK SPRINGS   FAIR      34  28  79 S7        30.00S WCI  28
6HR MIN TEMP:  33; 6HR MAX TEMP:  37;

DIXON          CLOUDY    39  34  83 SE5       30.06S
RAWLINS        MOCLDY    36  31  82 SW9       29.99S WCI  29
6HR MIN TEMP:  36; 6HR MAX TEMP:  39;

SARATOGA       CLOUDY    36  32  87 SE7       30.03S WCI  30
LARAMIE        FAIR      35  25  66 SW12      29.99F WCI  27
6HR MIN TEMP:  35; 6HR MAX TEMP:  41;

CHEYENNE       FAIR      44  28  53 W15       29.97S
6HR MIN TEMP:  41; 6HR MAX TEMP:  46; 6HR PCP: TRACE;

TORRINGTON     FAIR      51  26  37 NW3       29.90R
6HR MIN TEMP:  49; 6HR MAX TEMP:  53;

PINE BLUFFS    CLOUDY    50  27  40 MISG      29.96R

$$




USA.gov is the U.S. government's official web portal to all federal, state and local government web resources and services.